Погода в Музаффарпуре

Индия     26°06′59″N   85°23′15″E
темп.,
°C
ветер,
м/с
пор.,
м/с
влажн.,
%
обл.,
%
осадки,
мм/ч
давл.,
гПа
погр.,
м
20 января, ср
ср2023:30+15зсз23630 0.0 101223
02:30+14з11710 0.0 101123
05:30+13зюз23750 0.0 101223
08:30+17з23620 0.0 1014242
11:30+23з34460 0.0 10141012
14:30+26з56360 0.0 10112246
17:30+20зюз44500 0.0 101157
20:30+17з34620 0.0 101343
21 января, чт
чт2123:30+14з33710 0.0 101327
02:30+12з34710 0.0 101139
05:30+11з33710 0.0 101132
08:30+15зюз34570 0.0 1014264
11:30+21з23380 0.0 1014842
14:30+24зюз33280 0.0 10111833
17:30+18зюз22390 0.0 101223
20:30+15зсз33450 0.0 101423
22 января, пт
пт2223:30+13сз22510 0.0 101323
02:30+12ссв12560 0.0 101323
05:30+10з11600 0.0 101322
08:30+16зюз11460 0.0 1016178
11:30+22юв22350 0.0 1015834
14:30+24юв22340 0.0 10121613
17:30+19ю12470 0.0 101223
20:30+16зюз23500 0.0 101323
23 января, сб
сб2323:30+15сз23500 0.0 101323
02:30+13ссз23560 0.0 101223
05:30+12зсз22580 0.0 101223
08:30+17юз22470 0.0 1014180
11:30+24ю11380 0.0 1013842
14:30+25ю21340 0.0 10111567
17:30+20ю22480 0.0 101023
20:30+16зюз11590 0.0 101223
24 января, вс
вс2423:30+15ссз11640 0.0 101223
02:30+14ссв23670 0.0 101223
05:30+13в12740 0.0 101123
08:30+18вюв23550 0.0 1014191
11:30+25вюв34380 0.0 10131005
14:30+27юв22310 0.0 10111228
17:30+21в12430 0.0 101023
20:30+19св22500 0.0 101223